Location: Acton
(51.4942°N, 0.2232°W)
Time: 23:22:02
(UTC+00:00)

Cosmos 1805 - Pass Details

Date: 18 September 2020
Orbit: 524 x 532 km, 82.5° (Epoch: 31 October)

Event Time Altitude Azimuth Distance (km) Brightness Sun altitude
Exits shadow 20:36:22 79° 225° (SW) 548 3.2 -22.6°
Maximum altitude 20:36:34 84° 279° (W) 542 3.2 -22.6°
Drops below altitude 10° 20:40:31 10° 9° (N) 1,795 6.2 -23.1°
Sets 20:42:41 0° 11° (N) 2,691 7.2 -23.4°
